sat.trackr.live / text

‹ back to catalog

WEINA 2

NORAD 47303 · 2020-103B

PAYLOAD ACTIVE UNKNOWN

§ Identity

Operator
Country
PRC
Launch date
2020-12-27
Launch site
JSC
Launch vehicle
Mass (kg)
RCS (m²)

External: N2YO · Heavens-Above · Gunter

§ Orbital elements

Epoch: 2026-09-10T02:55:14.230272Z

Period
98.28 min
Inclination
98.0404°
Eccentricity
0.0001326
Mean motion
14.65156870 rev/d
Perigee alt
675.6 km
Apogee alt
677.5 km
Semi-major
7,054.7 km
B*
1.4146e-4
RAAN
140.4958°
Arg perigee
331.3756°
Mean anomaly
28.7374°
Rev number
30,416

§ Raw data

WEINA 21 47303U 20103B   26253.12169248  .00000714  00000+0  14146-3 0  99942 47303  98.0404 140.4958 0001326 331.3756  28.7374 14.65156870304163

JSON: /api/v1/satellites/47303 · /tle

For live sub-satellite position, see the globe view (requires WebGL).

§ Visibility from observer

Set your observer location to see the next 7 days of passes ≥ 10°. The values pass through the URL so the page stays shareable.

No JS? Fill the form by hand. The geolocation button needs JavaScript.